Tracking 31027 objects as of 19-Jul-2025
HD Live streaming from Space Station
objects crossing your sky now

STARLINK-31335

Track STARLINK-31335 now!
10-day predictions
STARLINK-31335 is classified as:


NORAD ID: 58969
Int'l Code: 2024-031E
Perigee: 481.5 km
Apogee: 483.2 km
Inclination: 53.2 °
Period: 94.1 minutes
Semi major axis: 6853 km
RCS: Unknown
Launch date: February 15, 2023
Source: United States (US)
Launch site: AIR FORCE WESTERN TEST RANGE (AFWTR)
Your satellite tracking list
ICEYE-X27
Track 1 satellite(s)




NASA's NSSDC Master Catalog

Two Line Element Set (TLE):
1 58969U 24031E   25199.54996814 -.00005144  00000-0 -16164-3 0  9996
2 58969  53.1612 301.5355 0001198 101.3730 258.7406 15.30203892 80725
Source of the keplerian elements: AFSPC